Weather History for KF05 - June, 2013

Change the Weather History Date:

Monday, June 3, 2013

  Actual Average (KLTS) Record (KLTS)
Temperature  
Mean Temperature 81 °F -  
Max Temperature 97 °F 86 °F 105 °F (2008)
Min Temperature 65 °F 64 °F 61 °F (2007)
Cooling Degree Days 16    
Growing Degree Days 31 (Base 50)    
Moisture  
Dew Point 51 °F    
Average Humidity 38    
Maximum Humidity 61    
Minimum Humidity 20    
Precipitation  
Precipitation 0.00 in - - ()
Sea Level Pressure  
Sea Level Pressure 29.89 in    
Wind  
Wind Speed 12 mph (SSE)    
Max Wind Speed 21 mph    
Max Gust Speed 28 mph    
Visibility 10 miles    
Events      
Averages and records for this station are not official NWS values.
T = Trace of Precipitation, MM = Missing Value Source: NWS Daily Summary

Daily Weather History Graph

Daily Weather History Graph

Search for Another Location

Airport or City:

Trip Planner

Search our weather history database for the weather conditions in past years. The results will help you decide how hot, cold, wet, or windy it might be!

Date:

Astronomy

Jun. 03, 2013 Rise Set
Actual Time 6:25 AM CDT 8:45 PM CDT
Civil Twilight 5:56 AM CDT 9:14 PM CDT
Nautical Twilight 5:21 AM CDT 9:49 PM CDT
Astronomical Twilight 4:42 AM CDT 10:28 PM CDT
Moon 3:13 AM CDT (6/3) 4:26 PM CDT (6/3)
Length of Visible Light 15h 17m
Length of Day
14h 19m
Waning Crescent, 22% of the Moon is Illuminated
Jun 3
Waning Crescent
Jun 8
New
Jun 16
First Quarter
Jun 23
Full
Jun 29
Last Quarter

Hourly Weather History & Observations

Time (CDT) Temp. Heat Index Dew Point Humidity Pressure Visibility Wind Dir Wind Speed Gust Speed Precip Events Conditions
12:15 AM 69.6 °F - 47.1 °F 45% 30.00 in 10.0 mi ESE 10.4 mph - N/A   Clear
12:35 AM 68.9 °F - 47.5 °F 46% 30.01 in 10.0 mi East 9.2 mph - N/A   Clear
12:55 AM 68.4 °F - 48.0 °F 48% 30.01 in 10.0 mi East 8.1 mph - N/A   Clear
1:15 AM 67.8 °F - 48.2 °F 49% 30.00 in 10.0 mi ESE 9.2 mph - N/A   Clear
1:35 AM 67.8 °F - 48.6 °F 50% 30.01 in 10.0 mi ESE 8.1 mph - N/A   Clear
1:55 AM 67.5 °F - 48.7 °F 51% 30.02 in 10.0 mi SE 6.9 mph - N/A   Clear
2:35 AM 65.8 °F - 49.1 °F 55% 30.02 in 10.0 mi SE 4.6 mph - N/A   Clear
2:55 AM 65.8 °F - 48.9 °F 54% 30.00 in 10.0 mi SE 5.8 mph - N/A   Clear
3:35 AM 65.3 °F - 49.1 °F 56% 30.00 in 10.0 mi SSE 5.8 mph - N/A   Clear
3:55 AM 65.3 °F - 48.9 °F 55% 29.99 in 10.0 mi SSE 4.6 mph - N/A   Clear
4:15 AM 65.1 °F - 49.1 °F 56% 29.99 in 10.0 mi South 5.8 mph - N/A   Clear
4:35 AM 65.3 °F - 49.3 °F 56% 29.99 in 10.0 mi SSE 6.9 mph - N/A   Clear
4:55 AM 65.7 °F - 50.0 °F 57% 29.97 in 10.0 mi SSE 9.2 mph - N/A   Clear
5:15 AM 66.2 °F - 50.7 °F 57% 29.96 in 10.0 mi SSE 10.4 mph - N/A   Clear
5:35 AM 66.2 °F - 51.1 °F 58% 29.97 in 10.0 mi SSE 9.2 mph - N/A   Clear
5:55 AM 66.6 °F - 51.8 °F 59% 29.98 in 10.0 mi SSE 9.2 mph - N/A   Clear
6:15 AM 66.4 °F - 51.8 °F 59% 29.99 in 10.0 mi SE 6.9 mph - N/A   Clear
6:35 AM 66.0 °F - 52.2 °F 61% 29.98 in 10.0 mi SE 8.1 mph - N/A   Clear
6:55 AM 66.0 °F - 52.3 °F 61% 29.99 in 10.0 mi ESE 8.1 mph - N/A   Scattered Clouds
7:15 AM 66.7 °F - 52.7 °F 61% 29.99 in 10.0 mi SE 8.1 mph - N/A   Mostly Cloudy
7:35 AM 67.3 °F - 52.9 °F 60% 29.98 in 10.0 mi SE 12.7 mph - N/A   Scattered Clouds
7:55 AM 68.4 °F - 52.9 °F 58% 29.97 in 10.0 mi SSE 11.5 mph - N/A   Clear
8:15 AM 69.4 °F - 53.1 °F 56% 29.98 in 10.0 mi SSE 13.8 mph 18.4 mph N/A   Clear
8:35 AM 70.0 °F - 53.1 °F 55% 29.97 in 10.0 mi SSE 16.1 mph - N/A   Clear
8:55 AM 70.7 °F - 52.9 °F 53% 29.96 in 10.0 mi SSE 16.1 mph - N/A   Clear
9:15 AM 72.3 °F - 52.9 °F 50% 29.96 in 10.0 mi SSE 17.3 mph 20.7 mph N/A   Clear
9:35 AM 73.8 °F - 52.5 °F 47% 29.96 in 10.0 mi SSE 16.1 mph - N/A   Clear
9:55 AM 75.2 °F - 51.8 °F 44% 29.96 in 10.0 mi South 15.0 mph - N/A   Clear
10:15 AM 77.0 °F - 50.9 °F 40% 29.95 in 10.0 mi South 15.0 mph - N/A   Clear
10:35 AM 78.6 °F - 50.5 °F 37% 29.95 in 10.0 mi SSE 17.3 mph - N/A   Clear
10:55 AM 79.5 °F - 50.2 °F 36% 29.95 in 10.0 mi South 15.0 mph 18.4 mph N/A   Clear
11:15 AM 80.2 °F - 49.8 °F 34% 29.94 in 10.0 mi South 12.7 mph 18.4 mph N/A   Clear
11:35 AM 81.3 °F - 49.8 °F 33% 29.94 in 10.0 mi South 15.0 mph 19.6 mph N/A   Clear
11:55 AM 82.2 °F - 50.2 °F 33% 29.94 in 10.0 mi South 13.8 mph 19.6 mph N/A   Clear
12:15 PM 83.5 °F - 50.2 °F 31% 29.94 in 10.0 mi South 13.8 mph 18.4 mph N/A   Clear
12:35 PM 84.9 °F - 50.2 °F 30% 29.94 in 10.0 mi South 15.0 mph 20.7 mph N/A   Clear
12:55 PM 86.7 °F - 50.2 °F 28% 29.93 in 10.0 mi South 12.7 mph 19.6 mph N/A   Scattered Clouds
1:15 PM 88.2 °F - 49.8 °F 27% 29.92 in 10.0 mi South 15.0 mph 18.4 mph N/A   Scattered Clouds
1:35 PM 89.1 °F - 48.9 °F 25% 29.91 in 10.0 mi SSW 11.5 mph 20.7 mph N/A   Clear
1:55 PM 90.5 °F - 48.7 °F 24% 29.90 in 10.0 mi South 12.7 mph 19.6 mph N/A   Clear
2:15 PM 91.8 °F - 48.6 °F 23% 29.88 in 10.0 mi South 15.0 mph 20.7 mph N/A   Clear
2:35 PM 92.8 °F - 49.3 °F 22% 29.87 in 10.0 mi South 9.2 mph 25.3 mph N/A   Clear
2:55 PM 93.0 °F - 49.5 °F 23% 29.86 in 10.0 mi SSE 10.4 mph 21.9 mph N/A   Clear
3:15 PM 94.3 °F - 49.6 °F 22% 29.85 in 10.0 mi South 18.4 mph 21.9 mph N/A   Clear
3:35 PM 95.0 °F - 50.2 °F 22% 29.84 in 10.0 mi South 12.7 mph 26.5 mph N/A   Clear
3:55 PM 95.7 °F - 50.0 °F 21% 29.83 in 10.0 mi SE 11.5 mph 19.6 mph N/A   Clear
4:15 PM 96.6 °F - 49.5 °F 20% 29.82 in 10.0 mi SSE 17.3 mph 25.3 mph N/A   Clear
4:35 PM 97.0 °F - 49.6 °F 20% 29.81 in 10.0 mi SSE 13.8 mph 20.7 mph N/A   Clear
4:55 PM 97.5 °F - 50.2 °F 20% 29.80 in 10.0 mi SSE 17.3 mph 26.5 mph N/A   Clear
5:15 PM 97.7 °F - 50.5 °F 20% 29.79 in 10.0 mi SSE 13.8 mph 24.2 mph N/A   Clear
5:35 PM 97.7 °F - 50.7 °F 20% 29.78 in 10.0 mi SSE 15.0 mph 25.3 mph N/A   Clear
5:55 PM 97.7 °F - 50.7 °F 20% 29.78 in 10.0 mi South 17.3 mph - N/A   Clear
6:15 PM 97.9 °F - 50.5 °F 20% 29.77 in 10.0 mi SSE 18.4 mph 24.2 mph N/A   Clear
6:35 PM 97.5 °F - 51.1 °F 21% 29.77 in 10.0 mi South 15.0 mph 21.9 mph N/A   Clear
6:55 PM 97.2 °F - 51.3 °F 21% 29.76 in 10.0 mi South 16.1 mph 23.0 mph N/A   Clear
7:15 PM 96.8 °F - 50.9 °F 21% 29.76 in 10.0 mi SSE 20.7 mph 27.6 mph N/A   Clear
7:35 PM 95.9 °F - 52.3 °F 23% 29.76 in 10.0 mi SSE 20.7 mph 26.5 mph N/A   Clear
7:55 PM 95.4 °F - 52.2 °F 23% 29.75 in 10.0 mi SSE 17.3 mph - N/A   Clear
8:15 PM 94.3 °F - 51.4 °F 23% 29.76 in 10.0 mi SSE 16.1 mph 21.9 mph N/A   Clear
8:35 PM 93.2 °F - 51.8 °F 24% 29.76 in 10.0 mi SSE 17.3 mph 25.3 mph N/A   Clear
8:55 PM - - - N/A% 29.76 in 10.0 mi SE 16.1 mph - N/A   Unknown
9:15 PM 91.0 °F - 52.0 °F 26% 29.76 in 10.0 mi SE 16.1 mph - N/A   Clear
9:35 PM 89.8 °F - 52.0 °F 27% 29.76 in 10.0 mi SE 17.3 mph - N/A   Clear
9:55 PM 89.2 °F - 52.7 °F 29% 29.77 in 10.0 mi SSE 16.1 mph - N/A   Clear
10:15 PM 88.5 °F 86.3 °F 53.1 °F 30% 29.78 in 10.0 mi SSE 17.3 mph - N/A   Clear
10:35 PM 88.0 °F 85.7 °F 53.1 °F 30% 29.79 in 10.0 mi SE 20.7 mph - N/A   Clear
10:55 PM 87.4 °F - 52.2 °F 30% 29.79 in 10.0 mi SE 17.3 mph 24.2 mph N/A   Clear
11:15 PM 85.8 °F - 52.2 °F 31% 29.80 in 10.0 mi SE 18.4 mph - N/A   Clear
11:35 PM 84.6 °F - 52.2 °F 33% 29.80 in 10.0 mi SE 15.0 mph - N/A   Clear
11:55 PM 83.7 °F - 52.2 °F 34% 29.80 in 10.0 mi SE 16.1 mph - N/A   Clear